Location: Chevoux
(46.3801°N, 4.9476°E)
Time: 13:12:36
(UTC+00:00)

Tiros 1 - Visible Passes

Search period start: 13 May 2021 00:00
Search period end: 23 May 2021 00:00
Orbit: 630 x 664 km, 48.4° (Epoch: 12 May)

Date Brightness Start Highest point End Pass type
(mag) Time Alt. Az. Time Alt. Az. Time Alt. Az.
13 May 7.0 01:04:51 65° SSW 01:05:17 69° SSE 01:10:02 10° ENE visible
13 May 7.5 02:42:48 10° W 02:47:35 69° N 02:52:20 10° E visible
13 May 8.7 23:51:30 24° E 23:51:30 24° E 23:53:41 10° E visible
14 May 7.2 01:29:07 33° W 01:31:15 83° NNW 01:36:02 10° ENE visible
14 May 7.5 03:08:55 10° W 03:13:42 70° N 03:18:25 10° E visible
15 May 7.4 00:15:43 58° ESE 00:15:43 58° ESE 00:19:48 10° ENE visible
15 May 7.4 01:53:20 15° W 01:57:20 70° N 02:02:05 10° E visible
15 May 9.2 23:02:14 17° E 23:02:14 17° E 23:03:25 10° E visible
16 May 7.1 00:39:51 52° W 00:41:01 86° NNW 00:45:48 10° ENE visible
16 May 7.5 02:18:39 10° W 02:23:26 70° N 02:28:11 10° E visible
16 May 7.8 23:26:14 42° E 23:26:14 42° E 23:29:33 10° ENE visible
17 May 7.4 01:03:49 20° W 01:07:05 71° N 01:11:51 10° ENE visible
17 May 7.2 02:44:42 10° WNW 02:49:31 83° NNE 02:54:17 10° ESE visible
17 May 9.3 22:12:24 14° E 22:12:24 14° E 22:13:09 10° E visible
17 May 7.1 23:49:59 63° WSW 23:50:45 88° NNW 23:55:34 10° ENE visible
18 May 7.4 01:28:23 10° W 01:33:11 69° N 01:37:57 10° E visible
18 May 7.1 03:10:44 10° WNW 03:15:29 69° SSW 03:20:12 10° ESE visible
18 May 7.5 22:35:37 47° ESE 22:35:37 47° ESE 22:39:19 10° ENE visible
19 May 7.4 00:13:07 17° W 00:16:49 72° N 00:21:36 10° ENE visible
19 May 7.2 01:54:27 10° WNW 01:59:17 81° NNE 02:04:03 10° ESE visible
19 May 7.8 21:14:20 10° SSW 21:18:36 32° SE 21:22:52 10° E visible
19 May 7.1 22:55:40 10° WSW 23:00:30 89° SSE 23:05:20 10° ENE visible
20 May 7.4 00:38:07 10° W 00:42:55 69° N 00:47:42 10° E visible
20 May 7.1 02:20:28 10° WNW 02:25:16 73° SSW 02:29:59 10° ESE visible
20 May 8.7 20:00:01 10° S 20:02:51 16° SE 20:05:41 10° E visible
20 May 7.2 21:39:38 10° SW 21:44:20 56° SSE 21:49:04 10° ENE visible
20 May 7.3 23:21:44 10° W 23:26:33 73° N 23:31:21 10° ENE visible
21 May 7.2 01:04:11 10° WNW 01:09:01 79° NNE 01:13:48 10° E visible
21 May 7.5 02:46:33 10° WNW 02:51:05 44° SSW 02:55:35 10° SE visible
21 May 7.9 20:24:12 10° SSW 20:28:23 30° SE 20:32:34 10° E visible
21 May 7.1 22:05:25 10° WSW 22:10:15 86° SSE 22:15:05 10° ENE visible
21 May 7.4 23:47:51 10° W 23:52:40 68° N 23:57:27 10° E visible
22 May 7.0 01:30:12 10° WNW 01:35:00 76° SSW 01:39:46 10° ESE visible
22 May 8.2 03:12:55 10° W 03:16:45 24° SW 03:20:31 10° SSE visible
22 May 7.3 20:49:25 10° SW 20:54:06 53° SSE 20:58:48 10° ENE visible
22 May 7.3 22:31:28 10° W 22:36:17 74° N 22:41:07 10° ENE visible
